カタログに戻る

FREGAT DEB

LostUNKNOWN
NORAD 45838·DEBRIS·🇷🇺 Russia

打ち上げ Jul 18, 2011 から Baikonur Cosmodrome

Loading…

次のパス (今後24時間)

TLE

古いSource: Space-Track

元期: Dec 2, 2020, 05:39 UTC

1 45838U 11037BY  20337.23608981  .00152813  00000-0  29317+0 0  9993
2 45838  51.0539 339.3703 1733720 347.4247   8.9311 10.89127852 20563

AllMySatでFREGAT DEBをリアルタイム追跡

Download on the App Store